Форумы » Общий Форум
| Тема |
Дата |
# |
Автор |
Последнее сообщение |
| Выбор пулемета | 24/04/2015 | 15 | (Попал) | 24/04, 12:21, от Gamalon17 |
| как лучше качшуть авто страйосет vs фулларт | 24/04/2015 | 17 | Viking | 24/04, 11:26, от Gamalon17 |
| По вам выстрелили из ПТРК 12 | 23/04/2015 | 32 | мульт Сашули | 24/04, 10:58, от Иван Помидоров |
| Богатство выбора 12 | 23/04/2015 | 27 | Менструэль | 24/04, 10:29, от Аяйка |
| Что качать дальше. 12 | 24/04/2015 | 21 | Иван71984 | 24/04, 07:50, от Betskill.RU |
| Ночная обновлялка 123 +18 | 24/04/2015 | 45 | 2stvolah | 24/04, 05:13, тема закрыта |
| страйкосет 123 | 23/04/2015 | 47 | vania z | 24/04, 01:03, от Харон 700 |
| ферма | 23/04/2015 | 10 | 7KA-Antic | 24/04, 00:31, от -KLim1987 |
| Квест боба марлевича | 23/04/2015 | 14 | lkappa | 24/04, 00:25, от remzar |
| Дроб и пистолетто 12 | 23/04/2015 | 22 | _Sentoryu_ | 24/04, 00:20, тема закрыта |
| Мощь ГВ 123 | 22/04/2015 | 51 | милионер-ден | 23/04, 20:55, от рженвский |
| Статистика синдиката | 23/04/2015 | 10 | man1y | 23/04, 18:19, от vania z |
| Предложение по поиску на форуме +39 | 23/04/2015 | 18 | 2stvolah | 23/04, 17:04, от aprilfool |
| день х 12 -13 | 22/04/2015 | 35 | 4ибис | 23/04, 16:57, от -Jan- |
| нападу на музей в 14:00 кто поможет??? 12 | 23/04/2015 | 23 | кнг | 23/04, 15:29, тема закрыта |
| что лучше? аренда или быть управляющим? | 23/04/2015 | 11 | KGena | 23/04, 14:58, от добрый кролик |
| ganjastats.ru | 21/04/2015 | 15 | Kot | 23/04, 14:23, от FoadySfah |
| Карма < -2 12 | 23/04/2015 | 31 | - Arti - | 23/04, 13:51, от Ninja Ganja |
| прикол) 12 -17 | 23/04/2015 | 21 | KrAAkuN | 23/04, 12:30, от KrAAkuN |
| как такое может быть | 23/04/2015 | 6 | -Rapid- | 23/04, 11:38, тема закрыта |
| Музей)) -13 | 23/04/2015 | 13 | vk..com | 23/04, 10:13, от Злой Дьявол |
| Расчет оптимального слома +26 | 23/04/2015 | 20 | Харон 700 | 23/04, 07:49, от *Зулус* |
| Адвокат? 12345 -31 | 22/04/2015 | 82 | _Sentoryu_ | 23/04, 01:50, тема закрыта |
| навыки для автоматчиков 12 | 21/04/2015 | 29 | (я живой) | 23/04, 01:22, от The Darts |
| прикольно. | 23/04/2015 | 18 | The Darts | 23/04, 01:06, от Dremodar |
| Тапки & Модуль | 22/04/2015 | 10 | Goohi | 22/04, 23:59, от -KLim1987 |
| Торт? | 22/04/2015 | 14 | Эльниньо | 22/04, 23:45, тема закрыта |
| чип атаки vs чип брони 12 -11 | 22/04/2015 | 24 | vania z | 22/04, 23:15, от vania z |
| Таблица мощности оружия 123 +88 | 22/04/2015 | 58 | WightSataN | 22/04, 22:27, от Рыбак |
| воооот) 123 +20 | 22/04/2015 | 51 | Эксгибиционист) | 22/04, 20:32, от Dremodar |
| Прокачка эконома ураном 123 +20 | 19/04/2015 | 53 | Жуллик | 22/04, 18:56, от RAYDEN-1789 |
| Аут в сайгасете | 22/04/2015 | 18 | Megazoid | 22/04, 18:34, тема закрыта |
| пп вихрь Vs fmk | 22/04/2015 | 4 | dimk62 | 22/04, 18:15, тема закрыта |
| фулгос на 38й уровень 123 | 22/04/2015 | 49 | Morgad | 22/04, 14:41, от Morgad |
| Семейная пара в игре 12345» +53 | 20/04/2015 | 189 | Pon1qa | 22/04, 11:49, от remzar |
| почему выходит пок с лечилкой 10 12 -15 | 21/04/2015 | 28 | blendin | 22/04, 11:48, от blendin |
| страх -17 | 21/04/2015 | 20 | Меридия | 22/04, 11:44, тема закрыта |
| Что это? 12 | 21/04/2015 | 22 | _Sentoryu_ | 22/04, 11:38, от maloy0rostov |
| базука Марлевича 12 -17 | 21/04/2015 | 34 | *злой чел* | 22/04, 07:33, от Крещенный огнем |
| Kinetics CPW - какой апгрейд стоит делать? | 21/04/2015 | 15 | Urken | 22/04, 03:16, тема закрыта |
|